Regional Weather Roundup
Issued by NWS

Home | Current Version | Previous Version | Graphics & Text | Print | Product List | Glossary On
Versions: 1 2 3 4 5 6 7 8 9 10 11 12 13 14 15 16 17 18 19 20 21 22 23 24 25 26 27 28 29 30 31 32 33 34 35 36 37 38 39 40 41 42 43 44 45 46 47 48 49 50
000
ASUS43 KLOT 011606
RWRIL

ILLINOIS REGIONAL WEATHER ROUNDUP
NATIONAL WEATHER SERVICE CHICAGO/ROMEOVILLE IL
1100 AM CDT MON SEP 01 2014

NOTE: "FAIR" INDICATES FEW OR NO CLOUDS BELOW 12,000 FEET WITH NO
SIGNIFICANT WEATHER AND/OR OBSTRUCTIONS TO VISIBILITY.

* THESE STATIONS ARE NOT UNDER NWS QUALITY CONTROL. THEY ALSO MAY NOT
  REPORT WEATHER SUCH AS PRECIPITATION OR FOG.

ILZ001-002-007-009-015-016-024-011700-
NORTHWEST ILLINOIS

CITY           SKY/WX    TMP DP  RH WIND       PRES   REMARKS
MOLINE         MOSUNNY   76  65  68 W14       29.78R
STERLING*      PTSUNNY   77  66  69 W14G20    29.79S
SAVANNA*       MOSUNNY   76  64  65 SW8       29.76F
$$

ILZ003-004-008-010-011-017-018-011700-
NORTH CENTRAL ILLINOIS

CITY           SKY/WX    TMP DP  RH WIND       PRES   REMARKS
ROCKFORD       PTSUNNY   74  66  76 SW10G21   29.79R
FREEPORT*      MOSUNNY   74  67  79 SW14      29.79S
ROCHELLE*      PTSUNNY   72  67  84 SW14      29.79S
DE KALB*       CLOUDY    72  68  87 SW13      29.80S
PERU*          MOSUNNY   76  67  73 W16G23    29.80S
$$

ILZ005-006-012>014-019>023-011700-
NORTHEAST ILLINOIS

CITY           SKY/WX    TMP DP  RH WIND       PRES   REMARKS
CHICAGO-OHARE  LGT RAIN  75  69  81 SW8       29.78S
CHICAGO-MIDWAY CLOUDY    78  71  79 SW15      29.79R HX  80
AURORA         CLOUDY    75  69  81 W13       29.80R
LANSING*         N/A    N/A N/A N/A MISG        N/A
JOLIET*        CLOUDY    75  69  79 W8        29.81R
WAUKEGAN       LGT RAIN  73  71  93 SW14      29.77R FOG
DUPAGE AIRPORT CLOUDY    75  71  87 W13       29.79R
KANKAKEE*      CLOUDY    77  72  84 SW17G24   29.80R
WHEELING       CLOUDY    76  71  85 SW8       29.79S
MORRIS*        CLOUDY    77  72  83 W12       29.79S
ROMEOVILLE*    CLOUDY    75  71  87 W13G20    29.80R
NORTHERLY ISL    N/A     77  68  73 S8          N/A
$$

LMZ740>746-011700-
SOUTHERN LAKE MICHIGAN

STATION/POSITION SKY/WX   TEMP    WIND        PRES    VSBY  WAVE
                          AIR SEA DIR/SP/G                  HT/PER
                          (F)     (DEG/KT/KT) (MB)    (MI)  (FT/S)
SOUTHERN BUOY              72 69  200/ 17/ 21 1007.6R         4/ 5
WAUKEGAN HARBOR            73     230/ 11/ 17   N/A
HARRISON CRIB              76     210/ 20/ 25   N/A
BURNHAM HARBOR             77     200/  6/ 16   N/A
CALUMET HARBOR             76     210/  7/ 12 1007.3R
MICHIGAN CITY              74     170/ 18/ 25   N/A
MICHIGAN CITY 6N           75 72  200/ 16/ 23   N/A           2/ 3
ST. JOSEPH                 74 72  180/ 17/ 23   N/A           3/ 4
$$

ILZ025>027-034>036-040-047-049-050-058-095>099-011700-
WEST-CENTRAL ILLINOIS

CITY           SKY/WX    TMP DP  RH WIND       PRES   REMARKS
QUINCY         CLOUDY    73  63  70 W22       29.85R
GALESBURG*     MOSUNNY   77  67  71 W10       29.82R
MACOMB*        PTSUNNY   74  66  76 W8        29.84R
JACKSONVILLE*  CLOUDY    77  66  68 SW12      29.85R
PITTSFIELD*    CLOUDY    77  63  63 SW18G25   29.86R
$$

ILZ028>032-037-038-041>044-048-051>054-059>061-011700-
CENTRAL ILLINOIS

CITY           SKY/WX    TMP DP  RH WIND       PRES   REMARKS
PONTIAC        PTSUNNY   81  72  74 SW14G22   29.80R HX  84
DECATUR        CLOUDY    79  69  71 SW14      29.82R HX  81
PEORIA         MOSUNNY   80  64  58 W10       29.81R HX  82
LACON*         MOSUNNY   78  67  68 W9        29.80R
LINCOLN*       PTSUNNY   81  65  58 W8        29.78R HX  83
SPRINGFIELD    CLOUDY    79  65  62 W12       29.83R HX  81
TAYLORVILLE    CLOUDY    77  70  78 S18       29.82R
$$

ILZ033-039-045-046-055>057-062-063-011700-
EAST-CENTRAL ILLINOIS

CITY           SKY/WX    TMP DP  RH WIND       PRES   REMARKS
CHAMPAIGN      CLOUDY    78  71  79 S17G25    29.82R HX  80
DANVILLE*      CLOUDY    76  72  86 S12G17    29.81R
MATTOON        CLOUDY    77  71  82 S16G30    29.81F
PARIS*         CLOUDY    78  73  84 S16G25    29.81F HX  80
$$

ILZ079-100>102-011700-
SOUTHWEST ILLINOIS

CITY           SKY/WX    TMP DP  RH WIND       PRES   REMARKS
BELLEVILLE     CLOUDY    77  68  73 VRB6      29.83R
CAHOKIA*       CLOUDY    78  65  63 SW8       29.85R HX  80
SPARTA*        CLOUDY    76  69  79 S15G24    29.86F
$$

ILZ064>066-069>071-074>076-080>082-084>086-088>090-092>094-011700-
SOUTH-CENTRAL ILLINOIS

CITY           SKY/WX    TMP DP  RH WIND       PRES   REMARKS
CARBONDALE     CLOUDY    79  71  76 SW20G26   29.93F HX  82
CAIRO*         CLOUDY    82  73  72 SW13G20   29.99S HX  87
EFFINGHAM*     CLOUDY    78  68  72 S10G17    29.84F HX  80
MARION         PTSUNNY   81  72  74 S17G25    29.95F HX  84
MT. VERNON     CLOUDY    79  70  73 S20       29.89F HX  81
CENTRALIA*     CLOUDY    77  70  78 S22G30    29.82F
SALEM*         CLOUDY    79  74  84 S12G24    29.83F HX  82
METROPOLIS*    CLOUDY    82  73  73 SW13G26   29.99R HX  88
$$

ILZ067-068-072-073-078-083-087-091-011700-
SOUTHEAST ILLINOIS

CITY           SKY/WX    TMP DP  RH WIND       PRES   REMARKS
LAWRENCEVILLE  CLOUDY    81  73  76 SW17G26   29.90F HX  86
FLORA*         PTSUNNY   78  71  81 S16G24    29.88F
FAIRFIELD*     PTSUNNY   81  75  83 S10G17    29.90F HX  86
HARRISBURG*    CLOUDY    81  72  74 SW13G20   29.96S HX  85
ROBINSON*      CLOUDY    80  74  83 SW13G18   29.89F HX  85
CARMI*         CLOUDY    83  74  74 SW15      29.93R HX  90
$$

ABBREVIATIONS USED IN REMARKS
   TC - TEMPERATURE IN CELSIUS
  WCI - WIND CHILL INDEX
   HX - HEAT INDEX
  VSB - VISIBILITY
$$



USA.gov is the U.S. government's official web portal to all federal, state and local government web resources and services.